Tobyl

Kazakhstan     53˚12′02″N   63˚41′31″E
temp.,
°C
wind,
m/s
gust,
m/s
humid.,
%
clouds,
%
prec.,
mm/h
press.,
hPa
HPBL,
m
29 november, sun
sun2923:00−14˚nnw349656 0.0 104380
02:00−15˚nw359657 0.0 104588
05:00−15˚nnw349659 0.0 104783
08:00−15˚nnw339635 0.0 104863
11:00−14˚nnw359444 0.0 1049194
14:00−12˚nnw349341 0.0 1049249
17:00−14˚nw339529 0.0 105132
20:00−15˚nnw23950 0.0 105126
30 november, mon
mon3023:00−15˚nnw23940 0.0 105220
02:00−15˚nnw239532 0.0 105230
05:00−16˚nnw229546 0.0 105220
08:00−15˚n229599 0.0 105230
11:00−14˚nne239599 0.0 1053122
14:00−13˚nne239460 0.0 1052175
17:00−16˚nne239646 0.0 105220
20:00−17˚ne23950 0.0 105222
1 december, tue
tue123:00−17˚ne23950 0.0 105221
02:00−18˚ene22960 0.0 105220
05:00−19˚ene22950 0.0 105220
08:00−19˚ene23940 0.0 105231
11:00−17˚ene23920 0.0 1052136
14:00−15˚ene23910 0.0 1051180
17:00−17˚ene33930 0.0 105132
20:00−18˚ene34930 0.0 105148
2 december, wed
wed223:00−18˚e23920 0.0 105132
02:00−17˚ene33920 0.0 105034
05:00−17˚ene33920 0.0 104943
08:00−17˚ene34940 0.0 104857
11:00−14˚ene36930 0.0 1047146
14:00−12˚ene35900 0.0 1046195
17:00−14˚ene34890 0.0 104460
20:00−14˚ene348945 0.0 104451
3 december, thu
thu323:00−14˚ne349169 0.0 104349
02:00−15˚ne44921 0.0 104270
05:00−15˚ne46910 0.0 104290
08:00−16˚ne47920 0.0 1041116
11:00−14˚ne49880 0.0 1041236
14:00−12˚ne598660 0.0 1041279
17:00−13˚ne599079 0.0 1040262
20:00−13˚ne5988100 0.0 1040249